Regional Weather Roundup
Issued by NWS Goodland, KS

Home | Current Version | Previous Version | Text Only | Print | Product List | Glossary Off
Versions: 1 2 3 4 5 6 7 8 9 10 11 12 13 14 15 16 17 18 19 20 21 22 23 24 25 26 27 28 29 30 31 32 33 34 35 36 37 38 39 40 41 42 43 44 45 46 47 48 49 50

000
ASUS43 KGLD 270908
RWRGLD

GOODLAND FORECAST AREA HOURLY WEATHER ROUNDUP
NATIONAL WEATHER SERVICE GOODLAND KS
200 AM MST THU NOV 27 2014

...OFFICIAL OBSERVATIONS...

CITY           SKY/WX    TMP DP  RH WIND       PRES   REMARKS
GOODLAND KS    PTCLDY    25  20  81 S12       30.33S WCI  14
HILL CITY KS   MOCLDY    26  17  68 E3        30.42S
IMPERIAL NEB   PTCLDY    23  20  88 S8        30.32S
MCCOOK NEB     CLEAR     25  17  72 SE5       30.37F
AKRON CO       CLEAR     26  23  88 W14       30.25R WCI  14
BURLINGTON CO  CLEAR     25  19  78 SW16      30.30F WCI  12
LIMON CO       PTCLDY    21  17  84 E3        30.30S
$$

...UNOFFICIAL OBSERVATIONS...

CITY           SKY/WX    TMP DP  RH WIND       PRES   REMARKS
COLBY KS       CLEAR     25  25 100 S8        30.36S
GOVE KS          N/A     21  32 100 MISG        N/A
NORTON KS      PTCLDY    21  14  73 SE5       30.40R
SHARON SPRINGS   N/A     23  19  83 SW15        N/A  WCI  10
TRIBUNE KS     PTCLDY    23  21  93 SW10      30.37  WCI  12
TRENTON NEB      N/A     24  32 100 CALM        N/A
YUMA CO          N/A     20  17  87 CALM        N/A
$$


USA.gov is the U.S. government's official web portal to all federal, state and local government web resources and services.